Location: Eastlake (historical)
(39.0077°N, 122.6678°W)
Time: 09:55:27
(UTC+00:00)

ALOS - Pass Details

Date: 16 April 2021
Orbit: 682 x 685 km, 97.9° (Epoch: 08 May)

Event Time Altitude Azimuth Distance (km) Brightness Sun altitude
Rises 12:56:12 0° 5° (N) 3,054 6.0 -7.5°
Reaches altitude 10° 12:58:31 10° 358° (N) 2,134 5.1 -7.1°
Maximum altitude 13:02:55 43° 288° (WNW) 962 2.7 -6.3°
Drops below altitude 10° 13:07:18 10° 217° (SW) 2,119 4.3 -5.5°
Sets 13:09:37 0° 211° (SSW) 3,030 5.1 -5.0°
